#timestamp,LO_Frequency,Hit,StdDev 
1588816815.8,286047004.3,N
1588816835.6,286047001.7,N
1588816855.4,286047006.0,N
1588816875.3,286047004.8,N
1588816895.1,286047003.2,N
1588816915.9,286047005.7,N
1588816935.7,286047004.4,N
1588816955.5,286047001.4,N
1588816975.4,286047002.0,N
1588816995.2,286047003.1,N
1588817015.1,286047002.0,N
1588817016.0,286047002.0,N
1588817035.8,286047000.8,N
1588817055.6,286047000.9,N
1588817075.5,286046998.5,N
1588817095.3,286046998.2,N
1588817115.2,286046996.9,N
1588817135.9,286046999.5,N
1588817155.7,286047000.1,N
1588817175.6,286047004.3,N
1588817195.4,286047002.7,N
1588817215.2,286047002.5,N
1588817235.1,286046999.7,N
1588817236.0,286046999.7,N
1588817255.8,286047000.6,N
1588817275.7,286047001.0,N
1588817295.5,286046999.4,N
1588817315.4,286046999.2,N
1588817335.2,286046996.9,N
1588817355.0,286046994.9,N
1588817355.9,286046994.9,N
1588817375.8,286046995.8,N
1588817395.6,286046998.8,N
1588817415.4,286047001.2,N
1588817435.3,286047000.6,N
1588817455.1,286047000.0,N
1588817475.9,286046999.8,N
1588817495.7,286047000.8,N
1588817515.5,286047000.7,N
1588817535.4,286047001.2,N
1588817555.2,286046999.6,N
1588817575.1,286046996.6,N
1588817576.0,286046996.6,N
1588817595.8,286046998.4,N
1588817615.6,286046998.2,N
1588817635.5,286046999.6,N
1588817655.3,286046997.8,N
1588817675.1,286046997.8,N
1588817695.9,286046996.6,N
1588817715.7,286047000.5,N
1588817735.6,286047000.5,N
1588817755.4,286046999.9,N
1588817775.2,286047002.4,N
1588817795.1,286046998.3,N
1588817796.0,286046998.3,N
1588817815.8,286046998.9,N
1588817835.7,286047000.1,N
1588817855.5,286047001.2,N
1588817875.3,286046998.2,N
1588817895.2,286046996.5,N
1588817915.0,286046999.4,N
1588817915.9,286046999.4,N
1588817935.7,286046998.2,N
1588817955.6,286046999.3,N
1588817975.4,286046999.5,N
1588817995.3,286046999.3,N
1588818015.1,286046998.3,N
1588818016.0,286046998.3,N
1588818035.8,286047000.6,N
1588818055.7,286046998.5,N
1588818075.5,286046996.5,N
1588818095.4,286046998.8,N
1588818115.2,286046996.8,N
1588818135.0,286047000.9,N
1588818135.9,286047000.9,N
1588818155.8,286047001.1,N
1588818175.6,286047000.3,N
1588818195.4,286047000.6,N
1588818215.3,286047001.0,N
1588818235.1,286046998.8,N
1588818255.9,286047001.2,N
1588818275.7,286046999.4,N
1588818295.5,286047001.1,N
1588818315.4,286046996.5,N
1588818335.2,286046999.1,N
1588818355.1,286047001.2,N
1588818356.0,286047001.2,N
1588818375.8,286047003.9,N
1588818395.6,286047003.3,N
1588818415.5,286047001.5,N
1588818435.3,286047000.8,N
1588818455.1,286046996.5,N
1588818475.9,286046998.6,N
1588818495.7,286046999.9,N
1588818515.6,286047000.5,N
1588818565.4,286047001.7,E
1588818575.4,286047002.5,N
1588818595.2,286047001.0,P
1588818615.0,286047002.8,P
1588818615.9,286047002.8,Y
1588818635.8,286046998.9,P
1588818655.6,286046999.4,N
1588818675.5,286046997.0,N
1588818695.3,286046999.0,N
1588818715.1,286046997.3,N
1588818735.9,286046995.3,N
1588818755.7,286046995.5,N
1588818775.5,286046995.6,N
1588818795.4,286046999.3,N
1588818815.2,286046995.0,N
1588818835.1,286046998.0,N
1588818836.0,286046998.0,N
1588818855.8,286046996.8,N
1588818875.6,286046999.1,N
1588818895.5,286046999.1,N
1588818915.3,286046999.3,N
1588818935.2,286046996.6,N
1588818955.9,286046998.7,N
1588818975.7,286046999.0,N
1588818995.6,286046997.1,N
1588819015.4,286046998.3,N
1588819035.2,286046998.2,N
1588819055.1,286047001.2,N
1588819056.0,286047001.2,N
1588819075.8,286046998.9,N
1588819095.7,286046998.6,N
1588819115.5,286046998.2,N
1588819135.3,286047000.8,N
1588819155.2,286046999.9,N
1588819175.0,286047001.0,N
1588819175.9,286047001.0,N
1588819195.8,286047001.2,N
1588819215.6,286046999.7,N
1588819235.4,286047002.0,N
1588819255.3,286047000.6,N
1588819275.1,286046998.4,N
1588819295.8,286047000.7,N
1588819315.7,286046998.3,N
1588819335.5,286046999.4,N
1588819355.4,286047001.0,N
1588819375.2,286046999.9,N
1588819395.0,286047000.3,N
1588819395.9,286047000.3,N
1588819415.8,286046998.6,N
1588819435.6,286047000.5,N
1588819455.5,286047002.8,N
1588819475.3,286046999.9,N
1588819495.1,286047000.1,N
1588819515.9,286047002.5,N
1588819535.7,286046999.0,N
1588819555.6,286046995.1,Y
1588819575.4,286046997.6,P
1588819595.2,286046999.2,N
1588819615.1,286046998.3,N
1588819616.0,286046998.3,N
1588819635.8,286047001.0,N
1588819655.6,286047001.4,N
1588819675.5,286047001.7,N
1588819695.3,286047001.4,N
1588819715.2,286047001.5,N
1588819735.9,286047001.7,N
1588819755.7,286047000.5,N
1588819775.6,286047000.7,N
1588819795.4,286046999.5,N
1588819815.3,286046997.3,N
1588819835.1,286046998.6,N
1588819836.0,286046998.6,N
1588819855.8,286046998.4,N
1588819875.7,286047000.7,N
1588819895.5,286047001.1,N
1588819915.3,286046999.4,N
1588819935.2,286046998.9,N
1588819955.0,286047000.4,N
1588819955.9,286047000.4,N
1588819975.8,286047002.1,N
1588819995.6,286047003.6,N
1588820015.4,286047005.6,Y
1588820035.3,286047004.0,P
1588820055.1,286047002.0,N
1588820075.9,286047001.8,N
1588820095.7,286047005.9,Y
1588820115.5,286047001.5,P
1588820135.4,286047000.2,N
1588820155.2,286046998.9,N
1588820175.1,286047001.2,N
1588820176.0,286047001.2,N
1588820195.8,286046999.0,N
1588820215.6,286047000.9,N
1588820235.5,286046999.8,N
1588820255.3,286047002.1,N
1588820275.2,286047002.4,N
1588820295.9,286047000.5,N
1588820315.7,286046996.9,N
1588820335.6,286046996.5,N
1588820355.4,286046997.4,N
1588820375.2,286046994.9,N
1588820395.1,286046996.1,N
1588820396.0,286046996.1,N
